sat.trackr.live / text

‹ back to catalog

SHIJIAN-26 (SJ-26)

NORAD 64199 · 2025-115A

PAYLOAD ACTIVE UNKNOWN

§ Identity

Operator
Country
PRC
Launch date
2025-05-29
Launch site
JSC
Launch vehicle
Mass (kg)
RCS (m²)

External: N2YO · Heavens-Above · Gunter

§ Orbital elements

Epoch: 2026-05-25T03:25:25.413600Z

Period
94.53 min
Inclination
97.4556°
Eccentricity
0.0020654
Mean motion
15.23404275 rev/d
Perigee alt
481.4 km
Apogee alt
509.8 km
Semi-major
6,873.7 km
B*
1.9781e-4
RAAN
223.8208°
Arg perigee
75.6417°
Mean anomaly
284.7111°
Rev number
5,493

§ Raw data

SHIJIAN-26 (SJ-26)1 64199U 25115A   26145.14265525  .00004662  00000+0  19781-3 0  99972 64199  97.4556 223.8208 0020654  75.6417 284.7111 15.23404275 54937

JSON: /api/v1/satellites/64199 · /tle

For live sub-satellite position, see the globe view (requires WebGL).

§ Visibility from observer

Set your observer location to see the next 7 days of passes ≥ 10°. The values pass through the URL so the page stays shareable.

No JS? Fill the form by hand. The geolocation button needs JavaScript.